Meteo Giornale » Osservazioni meteo Gran Bretagna » Glasgow

ore: 15:50 - Osservazioni Meteo Glasgow
Lat. 55° 52' N Lon. 4° 26' W Alt. 8 metri s.l.m.

nuvoloso_piovaschi

15 °C

Pioggia

Temp. 24 Ore

11 °C

17 °C

Ovest

22.2 Km/h

Dew point 15 °C

Umidità 100 %

Visibilità  4 Km

Il sole sorge alle ore 06:22

Il sole tramonta alle ore 20:12

Data e Ora Cielo e Fenomeni T °C DP °C Um. % Pres. hPa Vis. km Vento km/h
Oggi h: 15:50 nuvoloso_piovaschi Pioggia 15 15 100 1012 4 O 22.2
Oggi h: 15:20 coperto_pioggia Pioggia 16 15 93 1012 7 SO 29.6
Oggi h: 14:50 coperto_pioggia Pioggia 16 16 100 1012 10 SO 27.8
Oggi h: 14:20 coperto_pioggia Pioggia 17 16 93 1011 10 SO 35.2
Oggi h: 13:50 coperto_pioggia Pioggia 16 16 100 1012 10 SO 37
Oggi h: 13:20 coperto_pioggia Pioggia 16 15 93 1012 4 SO 33.3
Oggi h: 12:50 coperto_pioggia Pioggia 16 15 93 1011 9 SO 37
Oggi h: 12:20 molto_nuvoloso Molto Nuvoloso 16 16 100 1011 10 SO 37
Oggi h: 11:50 coperto Coperto 16 16 100 1011 10 SO 35.2
Oggi h: 11:20 coperto_pioggia Pioggia 15 15 100 1011 4 SO 33.3
Oggi h: 10:50 coperto_pioggia Pioggia 15 15 100 1012 5 SO 35.2
Oggi h: 10:20 coperto_pioggia Pioggia 15 14 93 1012 10 SO 31.5
Oggi h: 09:50 coperto_pioggia Pioggia 15 14 93 1012 7 SO 31.5
Oggi h: 09:20 coperto_pioggia Pioggia 15 14 93 1012 9 S/SO 25.9
Oggi h: 08:50 coperto_pioggia Pioggia 14 14 100 1012 9 S/SO 22.2
Oggi h: 08:20 coperto_pioggia Pioggia 14 14 100 1012 8 SO 22.2
Oggi h: 07:50 coperto_pioggia Pioggia 14 14 100 1012 5 S/SO 24
Oggi h: 07:20 coperto_pioggia Pioggia 15 13 87 1012 10 S/SO 24
Oggi h: 06:50 sereno Sereno 15 13 87 1012 10 S/SO 22.2
Oggi h: 06:20 coperto_pioggia Pioggia 14 13 93 1013 10 SO 22.2
Oggi h: 05:50 poco_nuvoloso Poco Nuvoloso 14 12 87 1013 10 SO 20.3
Oggi h: 05:20 sereno Sereno 14 12 87 1013 10 SO 20.3
Oggi h: 04:50 poco_nuvoloso Poco Nuvoloso 14 13 93 1013 10 S/SO 25.9
Oggi h: 04:20 coperto Coperto 14 13 93 1013 10 S/SO 22.2
Oggi h: 03:50 coperto_pioggia Pioggia 14 12 87 1013 10 SO 20.3
Oggi h: 03:20 nuvoloso Nuvoloso 14 12 87 1013 10 SO 16.7
Oggi h: 02:50 molto_nuvoloso Molto Nuvoloso 14 12 87 1013 10 S/SO 16.7
Oggi h: 02:20 coperto Coperto 14 12 87 1013 10 S/SO 18.5
Oggi h: 01:50 coperto Coperto 14 12 87 1014 10 S/SO 14.8
Oggi h: 01:20 coperto_pioggia Pioggia 14 11 82 1014 10 S 13
Oggi h: 00:50 molto_nuvoloso Molto Nuvoloso 13 11 87 1014 10 S/SO 9.3
Oggi h: 00:20 molto_nuvoloso Molto Nuvoloso 13 11 87 1014 10 S/SO 9.3
Ieri h: 23:50 molto_nuvoloso Molto Nuvoloso 13 11 87 1015 10 SO 11.1
Ieri h: 23:20 coperto Coperto 13 11 87 1015 10 S/SO 13
Ieri h: 22:50 sereno Sereno 11 10 93 1015 10 SO 11.1
Ieri h: 22:20 sereno Sereno 12 10 87 1015 10 N 3.7
Ieri h: 21:50 molto_nuvoloso Molto Nuvoloso 12 10 87 1015 10 N 3.7
Ieri h: 21:20 nuvoloso Nuvoloso 13 10 81 1015 10 S/SO 7.4
Ieri h: 20:50 molto_nuvoloso Molto Nuvoloso 13 9 76 1014 10 O/SO 7.4
Ieri h: 20:20 coperto_pioggia Pioggia 14 9 71 1014 10 O 11.1
Ieri h: 19:50 poco_nuvoloso Poco Nuvoloso 14 8 67 1014 10 O 14.8
Ieri h: 19:20 sereno Sereno 14 8 67 1013 10 O 18.5
Ieri h: 18:50 sereno Sereno 15 8 62 1013 10 O 13
Ieri h: 18:20 sereno Sereno 15 8 62 1013 10 O 13
Ieri h: 17:50 sereno Sereno 15 8 62 1012 10 O 18.5
Ieri h: 17:20 molto_nuvoloso Molto Nuvoloso 16 9 63 1012 10 O 20.3
Ieri h: 16:50 nuvoloso Nuvoloso 16 10 67 1012 10 O 24